Location: Gwatt
(46.7204°N, 7.6223°E)
Time: 02:16:46
(UTC+00:00)

Cosmos 2098 Rocket - Pass Details

Date: 18 September 2020
Orbit: 366 x 1185 km, 82.9° (Epoch: 29 October)

Event Time Altitude Azimuth Distance (km) Brightness Sun altitude
Rises 20:52:59 0° 351° (N) 4,064 8.0 -31.7°
Reaches altitude 10° 20:55:48 10° 352° (N) 3,055 7.2 -32.0°
Enters shadow 21:02:13 71° 358° (N) 1,112 4.2 -32.8°
